Location: Vlissingen
(51.4500°N, 3.5830°E)
Time: 18:46:12
(UTC+02:00)

Daily predictions for brighter satellites

Satellite Brightness Start Highest point End
(mag) Time Altitude Azimuth Time Altitude Azimuth Time Altitude Azimuth
CZ-4C R/B 4.3 22:19:34 10° NW 22:24:57 29° N 22:31:03 10° ENE
SAR-Lupe-1 4.4 22:23:34 10° S 22:27:07 69° WSW 22:30:43 10° NNW
Meteor 1-29 3.0 22:25:57 10° NNE 22:29:29 85° ESE 22:32:58 10° SSW
ERS-1 Rocket 3.2 22:25:38 10° SSE 22:30:41 77° WSW 22:35:46 10° NNW
Cosmos 2227 Rocket 4.1 22:26:32 10° NNW 22:30:44 21° NE 22:34:56 10° E
NOSS 3-2 (C) 3.6 22:25:00 10° SW 22:31:09 85° SE 22:38:03 10° NE
Cosmos 1048 Rocket 4.1 22:27:22 10° NNW 22:32:45 83° WSW 22:38:01 10° SSE
Cosmos 1782 3.0 22:32:45 10° NNW 22:36:47 72° W 22:40:44 10° S
Cosmos 2219 4.1 22:31:31 10° NNW 22:36:57 41° NE 22:42:22 10° ESE
Cosmos 1733 Rocket 4.0 22:34:12 10° SSE 22:37:57 30° E 22:41:44 10° NNE
SL-08 RB Rocket 3.8 22:35:15 10° SSE 22:39:54 73° ENE 22:44:35 10° N
Cosmos 1408 2.6 22:37:10 10° S 22:40:51 66° E 22:44:35 10° NNE
MetOp-A 4.4 22:38:28 10° S 22:43:48 72° WSW 22:49:12 10° NNW
Cosmos 1869 Rocket 3.7 22:40:13 10° SSW 22:44:34 79° W 22:48:58 10° N
Helios 1B rocket 3.1 22:40:59 10° N 22:45:04 59° WNW 22:49:05 10° SSW
CENTAUR R/B 2.8 22:40:35 10° SSW 22:46:27 49° ESE 22:53:09 10° NE
Landsat 7 4.3 22:42:00 10° SE 22:46:35 49° ENE 22:51:11 10° N
Gbstr 26 Del rocket 3.1 22:43:55 10° W 22:48:51 86° N 22:52:57 10° E
Cosmos 1825 2.1 22:46:01 10° S 22:49:47 78° E 22:53:36 10° NNE
Cosmos 1943 Rocket 2.3 22:46:01 10° S 22:51:26 54° ESE 22:56:51 10° NE
Cosmos 2251 Rocket 4.0 22:49:15 10° NNW 22:54:22 50° ENE 22:59:01 12° SE
Lacrosse 4 Rocket 2.0 22:51:48 10° NW 22:56:15 59° WSW 23:00:27 11° SSE
Cosmos 2263 4.2 22:53:50 10° SSW 22:59:35 75° ESE 23:05:19 10° NNE
Nadezhda 4 Rocket 4.2 22:54:12 10° SSE 23:00:11 54° E 23:06:10 10° NNE
Molniya-1 2.0 22:59:42 10° SW 23:01:14 51° SE 23:02:49 10° NE
Cosmos 1862 3.3 22:57:35 10° S 23:01:31 62° E 23:05:27 10° NNE
Terra 2.3 22:57:35 12° SE 23:01:44 48° ENE 23:06:19 10° N
SPOT 1/Viking Rocket 3.6 22:59:05 10° SSE 23:04:17 87° WSW 23:09:33 10° NNW
COSMOS 2455 3.0 22:58:22 10° SW 23:04:24 83° NW 23:10:28 10° NE
Cosmos 372 Rocket 3.9 23:04:02 10° SSW 23:09:08 76° ESE 23:14:16 10° NNE
Cosmos 1674 Rocket 3.5 23:05:06 10° N 23:09:27 72° ENE 23:13:08 14° SSE
Cosmos 1812 4.0 23:06:50 10° N 23:10:13 28° ENE 23:12:45 15° ESE
Cosmos 1378 Rocket 4.1 23:06:12 10° N 23:10:27 44° ENE 23:13:46 16° SE
ATLAS CENTAUR R/B 3.3 23:11:20 12° ESE 23:11:20 12° ESE 23:12:27 10° E
CARTOSAT-1 3.8 23:07:47 14° SE 23:11:18 56° ENE 23:15:34 10° N
Cosmos 2369 Rocket 2.6 23:06:36 10° SW 23:12:16 71° WNW 23:18:00 10° NNE
Cosmos 1346 3.4 23:10:10 10° N 23:12:47 41° ENE 23:14:15 21° SE
GEOS 3 Rocket 3.7 23:10:20 14° SE 23:14:49 80° SW 23:20:07 10° NW
Cosmos 2344 3.8 23:08:18 10° SSW 23:15:40 53° ESE 23:24:09 10° NE
SPOT 5 3.7 23:11:06 10° S 23:16:22 56° W 23:21:34 10° NNW
ISS -3.6 23:14:24 10° SW 23:17:33 47° SSE 23:20:43 10° E
Alouette 2 Rocket 4.3 23:11:35 10° S 23:18:42 64° ESE 23:23:22 10° NNE
Cosmos 1125 Rocket 3.6 23:13:28 10° SSW 23:18:43 80° WNW 23:23:59 10° NNE
Cosmos 1340 4.1 23:16:35 10° NNW 23:20:05 35° W 23:23:34 10° SSW
ATLAS 3B R/B 4.4 23:14:11 10° W 23:20:50 37° NNW 23:27:12 10° NE
Cosmos 2297 Rocket 3.5 23:20:53 10° NNW 23:25:59 32° NE 23:31:03 10° ESE
H-2A R/B 2.3 23:25:29 19° SE 23:28:17 53° ENE 23:32:19 10° N
Cosmos 1437 2.7 23:26:33 10° NNW 23:29:47 89° WNW 23:31:45 22° SSE
Meteor 1-27 Rocket 4.4 23:24:31 10° NNW 23:30:08 52° W 23:35:36 10° S
Cosmos 405 Rocket 3.5 23:27:33 10° N 23:31:04 37° ENE 23:33:05 20° SE
ATLAS 5 CENTAUR R/B 3.4 23:25:56 10° WNW 23:31:17 36° WSW 23:36:29 12° S
Okean 3 3.4 23:30:32 10° N 23:34:45 82° E 23:37:38 20° SSE
Spot 4 4.2 23:32:42 19° SE 23:36:03 53° ENE 23:40:45 10° N
Cosmos 1867 3.8 23:30:50 10° NW 23:36:15 64° SW 23:40:07 19° SSE
Lacrosse 5 rocket 1.0 23:37:11 10° WSW 23:40:48 90° WNW 23:44:34 10° ENE
IGS 5A 3.5 23:39:47 19° S 23:42:41 78° WSW 23:46:52 10° NNW
H-2A R/B 3.1 23:40:25 10° SSW 23:45:32 42° W 23:50:35 10° NNW
Cosmos 494 Rocket 4.3 23:40:24 10° NNW 23:45:34 60° WSW 23:49:19 18° S
DNEPR-1 R/B 3.9 23:44:23 10° SW 23:49:14 74° NW 23:53:35 10° NE
Cosmos 1908 Rocket 3.6 23:47:07 19° S 23:50:15 69° E 23:54:41 10° NNE
Cosmos 1656 Rocket 3.6 23:45:04 10° SSW 23:50:29 70° ESE 23:56:02 10° NNE
Cosmos 2082 4.5 23:45:17 10° NNW 23:50:47 45° NE 23:55:10 16° ESE
CZ-2C R/B 4.1 23:51:24 17° ESE 23:54:39 33° ENE 23:59:00 10° N
BREEZE M DEB (TANK) 3.3 23:48:55 10° WSW 23:56:04 48° SSE 23:58:36 13° E
